Location: Borkenes
(68.7830°N, 16.1830°E)
Time: 23:14:02
(UTC+01:00)

Transit 2A - All Passes

Search period start: 13 December 2019 00:00
Search period end: 23 December 2019 00:00
Orbit: 602 x 957 km, 66.7° (Epoch: 12 December)

Date Brightness Start Highest point End Pass type
(mag) Time Alt. Az. Time Alt. Az. Time Alt. Az.
13 Dec - 06:16:32 10° SSE 06:18:57 14° ESE 06:21:19 10° E visible
13 Dec - 07:56:59 10° SSW 08:01:03 35° SE 08:05:02 10° ENE visible
13 Dec - 09:39:22 10° WSW 09:43:44 62° SSE 09:48:04 10° E daylight
13 Dec - 11:22:20 10° W 11:26:41 65° S 11:31:02 10° ESE daylight
13 Dec - 13:05:22 10° WNW 13:09:26 39° SW 13:13:34 10° SE daylight
13 Dec - 14:48:50 10° W 14:51:39 17° WSW 14:54:30 10° SSW visible
14 Dec - 05:43:35 10° SE 05:45:06 12° ESE 05:46:36 10° E visible
14 Dec - 07:23:09 10° SSW 07:27:04 30° SE 07:30:53 10° ENE visible
14 Dec - 09:05:18 10° WSW 09:09:40 58° SSE 09:13:57 10° E visible
14 Dec - 10:48:13 10° W 10:52:35 67° S 10:56:57 10° ESE daylight
14 Dec - 12:31:15 10° WNW 12:35:24 45° SSW 12:39:38 10° SE daylight
14 Dec - 14:14:31 10° W 14:17:44 20° SW 14:21:01 10° S visible
15 Dec - 06:49:24 10° S 06:53:06 26° SE 06:56:42 10° ENE visible
15 Dec - 08:31:16 10° SW 08:35:35 52° SSE 08:39:51 10° E visible
15 Dec - 10:14:07 10° W 10:18:29 68° S 10:22:51 10° E daylight
15 Dec - 11:57:07 10° W 12:01:22 50° SSW 12:05:39 10° SE daylight
15 Dec - 13:40:17 10° WNW 13:43:49 24° SW 13:47:24 10° S daylight
16 Dec - 06:15:45 10° S 06:19:10 22° SE 06:22:30 10° ENE visible
16 Dec - 07:57:16 10° SW 08:01:32 47° SSE 08:05:44 10° E visible
16 Dec - 09:40:01 10° WSW 09:44:23 68° S 09:48:45 10° E daylight
16 Dec - 11:23:01 10° W 11:27:18 56° SSW 11:31:38 10° ESE daylight
16 Dec - 13:06:07 10° WNW 13:09:51 28° SW 13:13:42 10° SSE daylight
16 Dec - 14:50:51 10° W 14:51:45 11° WSW 14:52:39 10° SW visible
17 Dec - 05:42:13 10° SSE 05:45:15 18° SE 05:48:13 10° E visible
17 Dec - 07:23:19 10° SW 07:27:30 41° SSE 07:31:37 10° ENE visible
17 Dec - 09:05:56 10° WSW 09:10:17 66° S 09:14:39 10° E visible
17 Dec - 10:48:55 10° W 10:53:13 60° SSW 10:57:35 10° ESE daylight
17 Dec - 12:31:57 10° WNW 12:35:53 33° SW 12:39:53 10° SSE daylight
17 Dec - 14:15:49 10° W 14:17:55 13° WSW 14:20:02 10° SW visible
18 Dec - 05:08:52 10° SSE 05:11:22 15° ESE 05:13:51 10° E visible
18 Dec - 06:49:25 10° SSW 06:53:29 36° SE 06:57:29 10° ENE visible
18 Dec - 08:31:50 10° WSW 08:36:12 63° SSE 08:40:31 10° E visible
18 Dec - 10:14:48 10° W 10:19:08 64° S 10:23:31 10° ESE daylight
18 Dec - 11:57:49 10° WNW 12:01:52 38° SW 12:06:01 10° SSE daylight
18 Dec - 13:41:20 10° W 13:44:03 16° WSW 13:46:51 10° SSW daylight
19 Dec - 04:35:48 10° SE 04:37:31 12° ESE 04:39:13 10° E visible
19 Dec - 06:15:35 10° SSW 06:19:30 31° SE 06:23:21 10° ENE visible
19 Dec - 07:57:46 10° WSW 08:02:07 59° SSE 08:06:25 10° E visible
19 Dec - 09:40:42 10° W 09:45:02 67° S 09:49:26 10° ESE daylight
19 Dec - 11:23:42 10° WNW 11:27:51 44° SSW 11:32:06 10° SE daylight
19 Dec - 13:07:00 10° W 13:10:10 20° SW 13:13:24 10° S daylight
20 Dec - 05:41:49 10° S 05:45:32 27° SE 05:49:11 10° ENE visible
20 Dec - 07:23:44 10° SW 07:28:02 54° SSE 07:32:19 10° E visible
20 Dec - 09:06:35 10° W 09:10:56 68° S 09:15:19 10° E visible
20 Dec - 10:49:35 10° W 10:53:48 49° SSW 10:58:06 10° SE daylight
20 Dec - 12:32:45 10° WNW 12:36:15 23° SW 12:39:49 10° S daylight
21 Dec - 05:08:08 10° S 05:11:35 22° SE 05:14:59 10° ENE visible
21 Dec - 06:49:44 10° SW 06:53:59 48° SSE 06:58:12 10° E visible
21 Dec - 08:32:29 10° W 08:36:51 68° S 08:41:13 10° E visible
21 Dec - 10:15:29 10° W 10:19:45 55° SSW 10:24:06 10° SE daylight
21 Dec - 11:58:34 10° WNW 12:02:17 28° SW 12:06:06 10° SSE daylight
21 Dec - 13:43:46 10° WSW 13:44:10 10° WSW 13:44:34 10° WSW daylight
22 Dec - 04:34:34 10° S 04:37:40 19° SE 04:40:44 10° E visible
22 Dec - 06:15:46 10° SW 06:19:57 42° SSE 06:24:05 10° ENE visible
22 Dec - 07:58:23 10° WSW 08:02:44 67° S 08:07:07 10° E visible
22 Dec - 09:41:22 10° W 09:45:40 60° SSW 09:50:03 10° ESE daylight
22 Dec - 11:24:25 10° WNW 11:28:19 32° SW 11:32:20 10° SSE daylight
22 Dec - 13:08:22 10° W 13:10:20 13° WSW 13:12:20 10° SW daylight
